Lid_Strength_Index
4 3 3 4 4 4 5 4 6 8 7 7 7 5 4 4 4 4 4 4 2 1 0 -0 0 0 -0 -1 -1 -0 0 1 1 1 2 2 2 1
4 5 3 4 4 4 4 4 6 7 8 7 6 6 4 4 4 4 4 5 3 1 1 1 1 2 2 1 1 0 1 1 1 1 1 1 1 0
4 5 4 4 4 4 4 5 5 6 8 8 6 6 5 4 5 4 4 4 4 3 2 1 2 2 2 2 2 1 2 1 1 1 1 1 0 0
4 5 4 4 4 4 4 5 5 5 7 8 7 7 6 4 4 5 4 4 4 4 3 2 2 2 2 2 2 3 3 3 3 2 2 1 0 0
4 5 4 5 4 4 4 4 4 4 6 7 7 7 6 4 5 5 5 5 5 5 4 3 3 2 2 2 3 3 3 4 4 4 3 3 2 1
4 4 4 5 5 4 4 4 4 4 5 6 7 6 5 6 4 5 5 6 5 5 5 4 4 3 3 2 3 4 4 4 4 4 4 5 5 4
4 4 4 5 6 4 3 4 4 4 5 5 7 7 6 5 4 4 4 4 6 5 5 6 6 5 4 4 4 5 4 4 4 4 4 5 5 5
5 5 4 8 7 6 5 4 4 4 5 5 5 6 5 4 4 4 4 6 6 5 4 5 5 5 5 5 4 4 4 4 5 5 5 5 5 5
5 5 5 5 7 5 4 5 6 4 5 4 5 5 5 4 3 4 4 4 5 6 4 5 5 5 4 4 5 5 5 5 4 5 5 5 5 6
4 4 5 5 5 5 3 4 4 3 4 3 3 3 3 3 3 3 4 4 6 7 4 6 6 5 4 5 5 5 5 5 5 5 5 6 6 6
4 4 4 4 6 7 5 4 5 4 4 5 5 4 5 4 3 4 5 6 7 7 5 6 7 6 6 5 5 6 6 6 6 5 5 6 6 6
6 3 7 4 7 8 5 4 5 4 3 5 4 5 5 4 5 3 4 5 6 7 7 5 7 7 7 7 4 4 5 6 6 5 5 5 6 6
12 9 4 7 7 8 7 5 5 4 4 4 3 3 4 4 4 3 3 3 5 5 6 4 7 8 8 8 8 6 5 5 5 5 5 6 6 6
16 14 13 10 8 8 7 6 7 6 4 5 4 3 3 5 4 3 3 3 2 3 4 3 8 6 7 10 8 8 8 5 6 5 5 5 6 6
15 15 13 13 9 8 8 7 8 5 5 6 6 5 4 4 3 3 3 3 3 4 5 4 6 5 5 6 9 8 7 8 7 5 6 7 6 6
16 17 15 14 13 7 7 7 5 5 5 5 5 4 4 5 5 4 5 5 5 5 7 4 3 5 7 5 6 8 7 9 8 7 6 7 7 6
18 18 19 19 18 18 15 13 8 6 6 5 5 5 6 6 6 4 5 6 6 6 6 11 7 6 5 6 9 6 7 10 8 8 10 9 7 6
19 20 20 21 21 21 19 19 18 17 16 14 7 6 6 7 5 5 5 6 5 6 6 6 9 12 13 12 10 5 6 5 7 6 8 6 4 5
20 21 22 22 22 22 21 20 21 20 18 17 16 16 15 8 7 8 6 6 6 5 5 6 8 8 9 8 11 14 8 7 8 10 6 7 5 11
21 21 22 22 22 22 22 22 20 20 20 19 18 17 16 16 16 10 8 8 6 7 7 7 8 7 7 8 10 15 14 14 12 7 13 14 14 13
22 23 22 22 23 22 22 22 21 20 21 20 20 19 18 17 16 16 16 13 12 11 9 9 8 9 13 13 15 18 17 13 13 13 14 14 15 15
21 21 22 22 22 22 22 22 22 22 21 21 20 20 19 18 18 17 16 16 16 15 15 15 15 14 14 10 10 19 19 16 14 14 13 13 15 15
21 21 22 22 22 23 22 23 22 22 22 22 21 20 20 19 18 18 18 17 17 16 16 17 17 16 16 15 17 18 18 18 17 18 17 14 14 14